weather.gov     
National Weather Service

Terminal Aerodrome Forecast
NWS Homepage
This page is being discontinued on March 12, 2014.
The same data is available at this site. Please update your bookmarks.
Thank you, and we apologize for the inconvenience.
Please send an email to SR-SRH.Webmaster@noaa.gov with any concerns.


Current Version
Previous Version:    01  02  03  04  05  06  07  08  09  10  11  12  13  14  15  16  17  18  19  20  21  22  23  24  25  26  27  28  29  30  
   31  32  33  
[Printable]
851
FTUS43 KILX 011700 RRA
TAFBMI
TAF
KBMI 011746Z 0118/0218 11012KT 1SM -SN BR OVC004
      TEMPO 0118/0121 1/2SM SN FG
     FM012100 02011KT 2SM -SN BR OVC004
     FM020000 36020G30KT 3SM -SN BLSN OVC004
     FM021000 34020G24KT P6SM OVC017
     FM021500 32010KT P6SM SCT020=


U.S. Dept. of Commerce
NOAA National Weather Service
1325 East West Highway
Silver Spring, MD 20910
E-mail: w-nws.webmaster@noaa.gov
Page last modified: May 16, 2007
NATIONAL WEATHER SERVICE: for Safety, for Work, for Fun - FOR LIFE